Home > Weather > Kaiserslautern > Past weeks

Flag for Germany Past Weather in Kaiserslautern, Rhineland-Palatinate, Germany — Yesterday and Last 2 Weeks

Now
76 °F

Passing clouds.


Feels Like: 78 °F
Forecast: 62 / 74 °F
Wind: 5 mph from Northwest

Location: Ramstein

Current Time: Jul 25, 2016 at 10:13:31 PM

Latest Report: Jul 25, 2016 at 8:58 PM


Visibility: N/A

Pressure: 30.08 "Hg

Humidity: 58%

Dew Point: 60 °F

Location of KaiserslauternLocation

Past Weather in Kaiserslautern — Graph

°F

Kaiserslautern Temperature Yesterday

Maximum temperature yesterday: 79 °F (at 4:58 PM)
Minimum temperature yesterday: 64 °F (at 3:58 AM)
Average temperature yesterday: 70 °F

High & Low Weather Summary for the Past Weeks

 TemperatureHumidityPressure
High93 °F (Jul 20, 3:58 PM)100% (Jul 11, 3:58 AM)30.33 "Hg (Jul 11, 3:58 AM)
Low43 °F (Jul 16, 4:59 AM)30% (Jul 20, 3:58 PM)29.81 "Hg (Jul 10, 8:58 PM)
Average68 °F75%30.07 "Hg
* Reported Jul 10 7:58 PM — Jul 25 7:58 PM, Kaiserslautern, Weather by CustomWeather, © 2016

Note: Actual official high and low records may vary slightly from our data, if they occured in-between our weather recording intervals... More about our weather records

Advertising

Kaiserslautern Weather History for the Previous 24 Hours

Scroll right to see more
 ConditionsComfort  
Time TempWeatherWind HumidityBarometerVisibility
7:58 PM
Mon, Jul 25
79 °FPassing clouds.6 mph54%30.07 "HgN/A
6:58 PM82 °FPassing clouds.6 mph44%30.06 "HgN/A
5:58 PM82 °FPassing clouds.9 mph44%30.06 "HgN/A
4:58 PM79 °FSunny.7 mph54%30.06 "HgN/A
3:58 PM81 °FPassing clouds.8 mph55%30.07 "HgN/A
2:58 PM79 °FSunny.9 mph59%30.07 "HgN/A
1:58 PM81 °FPassing clouds.8 mph51%30.08 "HgN/A
12:58 PM79 °FPassing clouds.No wind61%30.08 "HgN/A
12:02 PM77 °FLight rain. Passing clouds.No wind65%30.11 "HgN/A
11:58 AM78 °FSunny.No wind63%30.09 "HgN/A
10:58 AM75 °FSunny.No wind71%30.09 "HgN/A
9:58 AM72 °FSunny.No wind73%30.09 "HgN/A
8:58 AM70 °FSunny.No wind88%30.09 "HgN/A
7:58 AM64 °FSunny.No wind100%30.08 "HgN/A
6:58 AM62 °FFog.No wind100%30.08 "Hg5 mi
6:03 AM62 °FFog.No wind100%30.07 "Hg1 mi
5:58 AM62 °FPassing clouds.No wind100%30.07 "Hg5 mi
4:58 AM63 °FPassing clouds.No wind100%30.07 "HgN/A
3:58 AM65 °FPassing clouds.No wind100%30.07 "HgN/A
2:58 AM67 °FPassing clouds.No wind99%30.07 "HgN/A
1:58 AM68 °FPassing clouds.No wind99%30.08 "HgN/A
12:58 AM66 °FOvercast.No wind100%30.09 "HgN/A
11:58 PM
Sun, Jul 24
68 °FPassing clouds.No wind99%30.09 "HgN/A
10:58 PM69 °FPartly cloudy.No wind96%30.08 "HgN/A
Weather by CustomWeather, © 2016

See weather overviewHow to use our weather pages